{"data":{"norad_id":68123,"epoch":"2026-09-19T15:52:44.258304Z","epoch_age_seconds":128601,"freshness":"FRESH","line1":"1 68123U 26044Y   26262.66162336  .00024464  00000+0  75737-3 0  9998","line2":"2 68123  97.2839 221.6918 0001928  97.6149 262.5313 15.33455388 31310","mean_motion":15.33455388,"eccentricity":0.0001928,"inclination_deg":97.2839,"raan_deg":221.6918,"arg_perigee_deg":97.6149,"mean_anomaly_deg":262.5313,"bstar":0.00075737,"rev_number":3131,"period_min":93.90556851335,"perigee_km":464.19281169446,"apogee_km":466.83172285192,"semimajor_km":6843.6492672732,"source":"CELESTRAK","updated_at":"2026-09-20T09:00:43.790090Z"}}